星链-30136 (STARLINK-30136 )

导读

STARLINK-30136是美国星链(Starlink)项目的低轨通信卫星,于2023年6月4日发射,归入SpaceX打造的全球卫星互联网星座组网。星链项目旨在为全球提供覆盖偏远地区的高速互联网服务,该卫星加入星座后,进一步扩充了低轨卫星网络容量,提升星座覆盖密度与通信服务能力。

基本信息
目录编号:
56844
目录名称:
STARLINK-30136
国际标识:
2023-079X
轨道中心:
EARTH
卫星名称:
星链-30136
卫星全名:
星链-30136 (STARLINK-30136 )
卫星状态:
在轨 (已飞行1188 天)
发射日期:
2023-06-04 UTC
国别 :
美国 (US)
星等 :
--
轨道信息
数据来源 国际轨道数据 AOE轨道数据
星历时间 2026-09-04T12:01:48+0800
11小时前
查看轨道信息
2026-09-04T00:00:00+0800
23小时前
查看轨道信息
半长轴 6861.255km 6861.226km
偏心率 0.0001334 0.0001405
轨道倾角 43.001° 42.996°
近地点辐角 296.160° 215.752°
升交点赤经 179.041° 181.873°
平近点角 63.912° 264.713°
近地点 482.202km 482.124km
远地点 484.034km 484.054km
周期 94.268分钟 94.268分钟
每日圈数 15.275572 15.275667
详细信息
固有亮度:
5
最大亮度:
0.5
卫星平台:
Starlink v2.0 mini
覆盖范围:
全球
运营商:
太空探索技术公司
运营商所在国:
美国
制造商(研发单位):
太空探索技术公司
制造商所在国:
美国
使用方式:
暂无
卫星简介
星链(Starlink)计划是由太空探索技术公司(SpaceX)提出的一个巨型低轨卫星互联网星座项目,计划在2019年至2024年间在太空搭建由约1.2万颗卫星组成的“星链”网络,其中1584颗将部署在地球上空550千米处的近地轨道,并从2020年开始工作。该卫星仍在工作。
2D轨道图
3D轨道图
轨道高度分析图
轨道倾角分析图
轨道综合分析图
查看轨道综合分析图
交会数据列表
事件ID 空间交会对象 最接近时刻(TCA) 交会距离 交会风险概率(CRP) 交会风险指数(CRI) 操作
CDM_260905-062905-684406-746822
2026-09-05T
06:29:24+0000
0.967 km
远距离
1.947298E-5 中风险 0.61
CDM_260907-043905-684406-212821
2026-09-07T
04:39:25+0000
0.799 km
远距离
1.7874E-5 中风险 0.6
CDM_260905-225805-684406-746821
2026-09-05T
22:58:02+0000
1.214 km
极远距离
8.85221E-6 低风险 0.54
CDM_260905-080305-684406-746821
2026-09-05T
08:03:34+0000
1.220 km
极远距离
8.706439E-6 低风险 0.54
CDM_260907-041705-684406-242321
2026-09-07T
04:17:51+0000
1.452 km
极远距离
5.759595E-6 低风险 0.5
CDM_260907-024305-684406-242321
2026-09-07T
02:43:42+0000
1.609 km
极远距离
4.154772E-6 低风险 0.47
CDM_260907-004405-684406-212821
2026-09-07T
00:44:02+0000
1.281 km
极远距离
3.600054E-6 低风险 0.46
CDM_260905-212305-684406-746821
2026-09-05T
21:23:53+0000
2.097 km
极远距离
1.719704E-6 低风险 0.4
CDM_260905-045505-684406-746823
2026-09-05T
04:55:15+0000
2.664 km
极远距离
1.092282E-6 低风险 0.36
CDM_260906-230905-684406-212821
2026-09-06T
23:09:52+0000
2.004 km
极远距离
1.01595E-6 低风险 0.35